• în România
  • Lista ţărilor
  • Pe 7 zile
  • Temperatura apei
  • Hartă satelitară
  • Meteo pe hartă
  • Widget-uri
  • user-avatar
    Intrare

    Meteo pe oră la Port-au-Princ

    Astăzi, 26 Mai, Sâmbătă

    Timp Temperatura Precipitaţii Vânt Presiune Umiditate
    00:00 +25°C° 0 mm 3 m/s 736 mmHg 78%
    01:00 +25°C° 0 mm 3 m/s 735 mmHg 80%
    02:00 +25°C° 0 mm 3 m/s 735 mmHg 80%
    03:00 +25°C° 0 mm 3 m/s 735 mmHg 80%
    04:00 +24°C° 0 mm 3 m/s 735 mmHg 80%
    05:00 +25°C° 0 mm 3 m/s 735 mmHg 76%
    06:00 +26°C° 0 mm 4 m/s 735 mmHg 72%
    07:00 +27°C° 0 mm 4 m/s 736 mmHg 68%
    08:00 +29°C° 0 mm 4 m/s 736 mmHg 62%
    09:00 +32°C° 0 mm 4 m/s 736 mmHg 56%
    10:00 +33°C° 0 mm 4 m/s 737 mmHg 50%
    11:00 +34°C° 0 mm 4 m/s 736 mmHg 49%
    12:00 +34°C° 0 mm 4 m/s 736 mmHg 48%
    13:00 +35°C° 0 mm 4 m/s 736 mmHg 46%
    14:00 +34°C° 0,1 mm 4 m/s 735 mmHg 49%
    15:00 +33°C° 0,1 mm 4 m/s 735 mmHg 52%
    16:00 +33°C° 0,1 mm 4 m/s 735 mmHg 54%
    17:00 +30°C° 0,2 mm 3 m/s 735 mmHg 59%
    18:00 +29°C° 0,2 mm 3 m/s 735 mmHg 65%
    19:00 +28°C° 0,2 mm 2 m/s 735 mmHg 70%
    20:00 +27°C° 0 mm 2 m/s 735 mmHg 71%
    21:00 +27°C° 0 mm 3 m/s 736 mmHg 72%
    22:00 +26°C° 0 mm 3 m/s 736 mmHg 74%
    23:00 +25°C° 0 mm 3 m/s 736 mmHg 75%

    Mâine, 27 Mai, Duminică

    Timp Temperatura Precipitaţii Vânt Presiune Umiditate
    00:00 +25°C° 0 mm 3 m/s 735 mmHg 76%
    01:00 +25°C° 0 mm 3 m/s 735 mmHg 77%
    02:00 +24°C° 0 mm 3 m/s 735 mmHg 78%
    03:00 +24°C° 0 mm 3 m/s 735 mmHg 78%
    04:00 +24°C° 0 mm 3 m/s 735 mmHg 79%
    05:00 +25°C° 0 mm 3 m/s 735 mmHg 75%
    06:00 +26°C° 0 mm 3 m/s 736 mmHg 71%
    07:00 +27°C° 0 mm 4 m/s 736 mmHg 67%
    08:00 +29°C° 0 mm 4 m/s 736 mmHg 60%
    09:00 +31°C° 0 mm 3 m/s 737 mmHg 53%
    10:00 +34°C° 0 mm 3 m/s 737 mmHg 46%
    11:00 +35°C° 0 mm 3 m/s 737 mmHg 44%
    12:00 +35°C° 0 mm 4 m/s 736 mmHg 42%
    13:00 +36°C° 0 mm 4 m/s 736 mmHg 40%
    14:00 +35°C° 0 mm 4 m/s 736 mmHg 42%
    15:00 +35°C° 0 mm 4 m/s 735 mmHg 45%
    16:00 +35°C° 0 mm 4 m/s 735 mmHg 47%
    17:00 +33°C° 0 mm 3 m/s 735 mmHg 54%
    18:00 +30°C° 0 mm 3 m/s 736 mmHg 62%
    19:00 +28°C° 0 mm 2 m/s 736 mmHg 70%
    20:00 +28°C° 0 mm 2 m/s 736 mmHg 72%
    21:00 +27°C° 0 mm 3 m/s 737 mmHg 74%
    22:00 +26°C° 0 mm 3 m/s 737 mmHg 77%
    23:00 +26°C° 0 mm 3 m/s 737 mmHg 77%

    Poimâine, 28 Mai, Luni

    Timp Temperatura Precipitaţii Vânt Presiune Umiditate
    00:00 +26°C° 0 mm 3 m/s 736 mmHg 78%
    01:00 +26°C° 0 mm 3 m/s 736 mmHg 79%
    02:00 +25°C° 0 mm 3 m/s 736 mmHg 79%
    03:00 +25°C° 0 mm 3 m/s 736 mmHg 79%
    04:00 +25°C° 0 mm 3 m/s 736 mmHg 80%
    05:00 +26°C° 0 mm 3 m/s 736 mmHg 76%
    06:00 +27°C° 0 mm 3 m/s 736 mmHg 72%
    07:00 +28°C° 0 mm 4 m/s 737 mmHg 68%
    08:00 +30°C° 0 mm 4 m/s 737 mmHg 62%
    09:00 +33°C° 0 mm 4 m/s 737 mmHg 55%
    10:00 +34°C° 0 mm 4 m/s 738 mmHg 49%
    11:00 +35°C° 0 mm 4 m/s 737 mmHg 47%
    12:00 +36°C° 0 mm 4 m/s 737 mmHg 45%
    13:00 +36°C° 0 mm 4 m/s 737 mmHg 43%
    14:00 +35°C° 0,2 mm 4 m/s 736 mmHg 47%
    15:00 +34°C° 0,2 mm 4 m/s 736 mmHg 51%
    16:00 +33°C° 0,2 mm 4 m/s 735 mmHg 54%
    17:00 +31°C° 0,5 mm 3 m/s 736 mmHg 60%
    18:00 +29°C° 0,5 mm 3 m/s 736 mmHg 67%
    19:00 +28°C° 0,5 mm 2 m/s 736 mmHg 73%
    20:00 +27°C° 0,3 mm 2 m/s 737 mmHg 75%
    21:00 +27°C° 0,3 mm 2 m/s 737 mmHg 77%
    22:00 +26°C° 0,3 mm 3 m/s 738 mmHg 79%
    23:00 +26°C° 0,1 mm 3 m/s 737 mmHg 80%

    29 Mai, Marţi

    Timp Temperatura Precipitaţii Vânt Presiune Umiditate
    00:00 +26°C° 0,1 mm 3 m/s 737 mmHg 81%
    01:00 +25°C° 0,1 mm 2 m/s 736 mmHg 82%
    02:00 +25°C° 0 mm 3 m/s 736 mmHg 81%
    03:00 +25°C° 0 mm 3 m/s 736 mmHg 81%
    04:00 +25°C° 0 mm 3 m/s 736 mmHg 81%
    05:00 +26°C° 0 mm 3 m/s 736 mmHg 77%
    06:00 +27°C° 0 mm 3 m/s 737 mmHg 72%
    07:00 +27°C° 0 mm 4 m/s 737 mmHg 68%
    08:00 +29°C° 0 mm 3 m/s 737 mmHg 61%
    09:00 +31°C° 0 mm 3 m/s 737 mmHg 54%
    10:00 +34°C° 0 mm 3 m/s 738 mmHg 47%
    11:00 +35°C° 0 mm 3 m/s 737 mmHg 46%
    12:00 +35°C° 0 mm 4 m/s 737 mmHg 45%
    13:00 +36°C° 0 mm 4 m/s 737 mmHg 43%
    14:00 +35°C° 0 mm 4 m/s 736 mmHg 46%
    15:00 +34°C° 0 mm 4 m/s 736 mmHg 49%
    16:00 +33°C° 0 mm 4 m/s 735 mmHg 52%
    17:00 +31°C° 0 mm 3 m/s 736 mmHg 58%
    18:00 +29°C° 0 mm 3 m/s 736 mmHg 64%
    19:00 +28°C° 0 mm 3 m/s 736 mmHg 70%
    20:00 +27°C° 0,1 mm 3 m/s 736 mmHg 73%
    21:00 +27°C° 0,1 mm 2 m/s 737 mmHg 75%
    22:00 +26°C° 0,1 mm 2 m/s 737 mmHg 78%
    23:00 +26°C° 0 mm 2 m/s 737 mmHg 79%

    30 Mai, Miercuri

    Timp Temperatura Precipitaţii Vânt Presiune Umiditate
    00:00 +25°C° 0 mm 2 m/s 737 mmHg 80%
    01:00 +25°C° 0 mm 2 m/s 736 mmHg 81%
    02:00 +25°C° 0 mm 3 m/s 736 mmHg 81%
    03:00 +25°C° 0 mm 3 m/s 736 mmHg 81%
    04:00 +24°C° 0 mm 3 m/s 736 mmHg 81%
    05:00 +25°C° 0 mm 3 m/s 736 mmHg 76%
    06:00 +26°C° 0 mm 3 m/s 736 mmHg 71%
    07:00 +27°C° 0 mm 4 m/s 737 mmHg 65%
    08:00 +29°C° 0 mm 3 m/s 737 mmHg 59%
    09:00 +31°C° 0 mm 3 m/s 737 mmHg 52%
    10:00 +34°C° 0 mm 3 m/s 737 mmHg 45%
    11:00 +34°C° 0 mm 3 m/s 737 mmHg 44%
    12:00 +35°C° 0 mm 3 m/s 736 mmHg 44%
    13:00 +35°C° 0 mm 4 m/s 736 mmHg 43%
    14:00 +34°C° 0,1 mm 4 m/s 736 mmHg 47%
    15:00 +34°C° 0,1 mm 3 m/s 735 mmHg 50%
    16:00 +33°C° 0,1 mm 3 m/s 735 mmHg 54%
    17:00 +31°C° 0,2 mm 3 m/s 735 mmHg 59%
    18:00 +29°C° 0,2 mm 2 m/s 735 mmHg 64%
    19:00 +28°C° 0,2 mm 2 m/s 736 mmHg 69%
    20:00 +28°C° 0,2 mm 2 m/s 736 mmHg 70%
    21:00 +27°C° 0,2 mm 2 m/s 736 mmHg 72%
    22:00 +27°C° 0,2 mm 2 m/s 737 mmHg 73%
    23:00 +26°C° 0,2 mm 2 m/s 736 mmHg 73%

    31 Mai, Joi

    Timp Temperatura Precipitaţii Vânt Presiune Umiditate
    00:00 +26°C° 0,2 mm 2 m/s 736 mmHg 72%
    01:00 +26°C° 0,2 mm 2 m/s 736 mmHg 72%
    02:00 +25°C° 0 mm 2 m/s 736 mmHg 73%
    03:00 +25°C° 0 mm 2 m/s 736 mmHg 74%
    04:00 +25°C° 0 mm 2 m/s 736 mmHg 74%
    05:00 +26°C° 0 mm 2 m/s 736 mmHg 71%
    06:00 +27°C° 0 mm 2 m/s 736 mmHg 68%
    07:00 +28°C° 0 mm 3 m/s 737 mmHg 64%
    08:00 +29°C° 0 mm 2 m/s 737 mmHg 58%
    09:00 +31°C° 0 mm 2 m/s 737 mmHg 51%
    10:00 +34°C° 0 mm 2 m/s 737 mmHg 45%
    11:00 +35°C° 0 mm 3 m/s 736 mmHg 43%
    12:00 +35°C° 0 mm 3 m/s 736 mmHg 42%
    13:00 +36°C° 0 mm 3 m/s 735 mmHg 41%
    14:00 +35°C° 0 mm 3 m/s 735 mmHg 44%
    15:00 +34°C° 0 mm 3 m/s 735 mmHg 47%
    16:00 +34°C° 0 mm 4 m/s 735 mmHg 50%
    17:00 +31°C° 0,1 mm 3 m/s 735 mmHg 56%
    18:00 +29°C° 0,1 mm 2 m/s 735 mmHg 63%
    19:00 +28°C° 0,1 mm 2 m/s 735 mmHg 69%
    20:00 +27°C° 0,1 mm 2 m/s 735 mmHg 71%
    21:00 +27°C° 0,1 mm 2 m/s 736 mmHg 74%
    22:00 +26°C° 0,1 mm 2 m/s 736 mmHg 76%
    23:00 +26°C° 0,1 mm 2 m/s 736 mmHg 76%
    Arată mai mult